Showing default

IRIDE-MS1-EAG2-10, 68451

Orbit data source: Space-Track

IRIDE-MS1-EAG2-10, 68451 is an Italian payload satellite in SSO that was launched on Mon, 30 Mar 2026 UTC via an FALCON 9 launch vehicle from the Air Force Western Test Range (AFWTR). Payload-class satellites include a variety of spacecraft equipped with specific instruments for various scientific and technological missions. These include communications satellites like Starlink; space stations such as the ISS; scientific satellites like the Hubble; Earth observation satellites from companies like Planet Labs, Umbra, and HawkEye 360; GPS; miniature CubeSats for education and research; and military/defense satellites.

Loading next visibility...
Identifier
68451, 2026-067AM
Orbit
SSO
Country
Flag of ITIT
Related business
Manufacturer
OHB-I
Mission
Operational Commercial Technology
Bus & Motor
EAGLET, Unknown motor
Mass
25 kg wet, 25 kg dry
Launch date (UTC)
2026-03-30 (6 months ago)
Launch vehicle
FALCON 9
Launch site
Air Force Western Test Range (AFWTR)
Object type
Payload
Rocket body
Debris
Shape & HBR
Box + 2 Pan, 1.0 m
Radar Cross Section
0.368 m², Medium (>0.1 m² and < 1m²)

Expand to show TLE details & history
Last TLE update: 15 hours ago

TLE from 15 hours ago
0 IRIDE-MS1-EAG2-10
1 68451U 26067AM  26263.41816741  .00005341  00000-0  25139-3 0  9992
2 68451  97.4606 220.6771 0003530  71.5077 288.6541 15.19964721 26402
Epoch: 2026-09-20T10:02Z
TLE epoch observation values (Epoch: 2026-09-20T10:02:09.664Z)
Latitude
-0.00004°
Longitude
70.8242°
Altitude
508.259 km
Speed
7.61 km/s
True Right ascension
14h 42m 42s
True Declination
0° 00' 00"
Sunlit
Object was in daylight at epoch
Visualization orbit readout
Latitude
Unknown
Longitude
Unknown
Altitude
Unknown
Speed
Unknown
Apparent Right ascension
Unknown
Apparent Declination
Unknown
Sunlit
N/A
Visualization observer readout
Local Sidereal Time
18:01:24
Azimuth
Unknown
Elevation
Unknown
Doppler factor
Unknown
Orbital elements
Apogee altitude
505.344 km
Perigee altitude
500.486 km
Semi-major axis
6,881.052 km
Eccentricity
0.00035
Inclination
97.4606°
RAAN
220.6771°
Arg. of periapsis
71.5077°
True anomaly
288.61577°
Mean anomaly
288.6541°
Eccentric anomaly
288.63493°
Mean motion
3.80243 °/min
Orbital period
94.68 mins
BSTAR
0.00025139
Loading maneuver chart data...
Computing Atmospheric mass density...
Loading historical data...
Loading historical data...
Loading historical data...
Loading historical data...
Loading historical data...
Loading historical data...
Loading historical data...

Documentation

Showing up to 5 results
|